Biloxi, MS

7:17 AM CST on February 23, 2018 (GMT -0600)
Keesler Air Force Base

Weather History for KBIX - October, 2014

Change the Weather History Date:

Thursday, October 30, 2014

  Actual Average Record
Temperature  
Mean Temperature 64 °F -  
Max Temperature 73 °F 77 °F 86 °F (1950)
Min Temperature 56 °F 57 °F 34 °F (1952)
Growing Degree Days 14 (Base 50)    
Moisture  
Dew Point 46 °F    
Average Humidity 53    
Maximum Humidity 84    
Minimum Humidity 28    
Precipitation  
Precipitation 0.00 in - - ()
Sea Level Pressure  
Sea Level Pressure 30.06 in    
Wind  
Wind Speed 9 mph (NNE)    
Max Wind Speed 16 mph    
Max Gust Speed -    
Visibility 10 miles    
Events      
Averages and records for this station are not official NWS values.
T = Trace of Precipitation, MM = Missing Value Source: NWS Daily Summary

Daily Weather History Graph

Daily Weather History Graph

Search for Another Location

Airport or City:

Trip Planner

Search our weather history database for the weather conditions in past years. The results will help you decide how hot, cold, wet, or windy it might be!

Date:

Astronomy

Oct. 30, 2014 Rise Set
Actual Time 7:08 AM CDT 6:09 PM CDT
Civil Twilight 6:43 AM CDT 6:34 PM CDT
Nautical Twilight 6:15 AM CDT 7:02 PM CDT
Astronomical Twilight 5:47 AM CDT 7:30 PM CDT
Moon 1:10 PM CDT (10/30) No Moon Set
Length of Visible Light 11h 50m
Length of Day
11h 01m
Waxing Crescent, 45% of the Moon is Illuminated
Oct 30
Waxing Crescent
Oct 30
First Quarter
Nov 6
Full
Nov 14
Last Quarter
Nov 22
New

Hourly Weather History & Observations

Time (CDT) Temp. Dew Point Humidity Pressure Visibility Wind Dir Wind Speed Gust Speed Precip Events Conditions
12:58 AM 63.7 °F 58.8 °F 84% 30.07 in 10.0 mi NNE 10.4 mph - N/A   Partly Cloudy
1:58 AM 63.0 °F 55.2 °F 76% 30.07 in 10.0 mi NNE 12.7 mph - N/A   Partly Cloudy
2:58 AM 61.5 °F 51.8 °F 70% 30.06 in 10.0 mi NNE 10.4 mph - N/A   Partly Cloudy
3:58 AM 60.1 °F 49.8 °F 69% 30.06 in 10.0 mi NE 9.2 mph - N/A   Scattered Clouds
4:58 AM 59.5 °F 49.3 °F 69% 30.07 in 10.0 mi NNE 10.4 mph - N/A   Scattered Clouds
5:58 AM 57.9 °F 48.0 °F 70% 30.07 in 10.0 mi NNE 9.2 mph - N/A   Clear
6:58 AM 56.7 °F 46.9 °F 70% 30.09 in 10.0 mi NNE 9.2 mph - N/A   Clear
7:58 AM 57.0 °F 46.0 °F 67% 30.11 in 10.0 mi NNE 10.4 mph - N/A   Clear
8:58 AM 60.4 °F 46.0 °F 59% 30.12 in 10.0 mi NE 9.2 mph - N/A   Clear
9:58 AM 65.1 °F 46.6 °F 51% 30.12 in 10.0 mi NNE 10.4 mph - N/A   Clear
10:58 AM 68.4 °F 43.9 °F 41% 30.12 in 10.0 mi ENE 16.1 mph - N/A   Clear
11:58 AM 70.2 °F 44.1 °F 39% 30.11 in 10.0 mi NE 11.5 mph - N/A   Clear
12:58 PM 72.1 °F 45.3 °F 38% 30.07 in 10.0 mi NNE 10.4 mph - N/A   Clear
1:58 PM 72.5 °F 41.9 °F 33% 30.05 in 10.0 mi North 12.7 mph - N/A   Clear
2:58 PM 73.4 °F 40.5 °F 30% 30.03 in 10.0 mi North 10.4 mph - N/A   Clear
3:58 PM 73.4 °F 37.9 °F 28% 30.01 in 10.0 mi NNE 8.1 mph - N/A   Clear
4:58 PM 72.1 °F 39.7 °F 31% 30.01 in 10.0 mi North 6.9 mph - N/A   Clear
5:58 PM 69.4 °F 40.1 °F 34% 30.02 in 10.0 mi NNE 5.8 mph - N/A   Clear
6:58 PM 66.6 °F 43.3 °F 43% 30.03 in 10.0 mi North 2.3 mph - N/A   Clear
7:58 PM 64.8 °F 45.3 °F 49% 30.04 in 10.0 mi NNW 3.5 mph - N/A   Clear
8:58 PM 62.2 °F 44.1 °F 51% 30.04 in 10.0 mi North 4.6 mph - N/A   Clear
9:58 PM 61.5 °F 44.4 °F 53% 30.05 in 10.0 mi NNW 2.3 mph - N/A   Clear
10:58 PM 59.4 °F 43.9 °F 57% 30.05 in 10.0 mi Calm Calm - N/A   Clear
11:58 PM 57.2 °F 44.4 °F 62% 30.04 in 10.0 mi Calm Calm - N/A   Clear